Location: Unspecified
(0.0000°N, 0.0000°E)
Time: 13:58:01
(UTC+00:00)

Tiangong 1 - Visible Passes

Search period start: 23 April 2017 00:00
Search period end: 03 May 2017 00:00
Orbit: 330 x 353 km, 42.8° (Epoch: 21 April)

Date Brightness Start Highest point End Pass type
(mag) Time Alt. Az. Time Alt. Az. Time Alt. Az.
27 Apr 1.9 19:01:37 10° SSW 19:03:38 30° SSE 19:03:38 30° SSE visible
28 Apr 2.5 19:23:31 10° WSW 19:26:07 31° NW 19:26:29 30° NNW visible
30 Apr 3.1 18:31:31 10° WSW 18:34:03 28° NW 18:36:33 10° NNE visible
02 May 3.6 04:40:51 10° N 04:43:01 20° NE 04:45:11 10° E visible
